FLOCK 2E'-2 (41481 NORAD) Tracking and Keplerian Element Data

This shows tracking and keplerian element data for the satellite.

Feedback or suggestion? Click here.




ElementValue
Catalog41481
NameFLOCK 2E'-2
Epoch Orbit8817
Epoch Day334.77617065
Epoch Year2017
RAAN233.371
Inclination51.6166
Eccentricity0.0007521
Argument of Perigee225.1371
Mean Anonmoly134.8092
Mean Motion16.4445834
Decay Rate0.16809613
L11 41481U 98067JB 17334.77617065 .16809613 12434-4 52553-3 0 9990
L22 41481 51.6166 233.3710 0007521 225.1371 134.8092 16.44458340 88170



Live tracking and technical data element details for FLOCK 2E'-2 (NORAD 41481). FLOCK 2E'-2 can be tracked NOW for your location showing map with azimuth and elevation plus other details from your city location.







IsCatalogInMostPopularTable: catalog: 41481, numindb: 448
Update: records affected: 1



GetName: 41481 FLOCK 2E'-2

Hit Count: updated at: Thu, 15 May 2025 09:20:13 GMT